User: anonymous
Location: Starry Hill Observatory
(46.8582°N, 122.3590°W)
Time: 17:23:40
(UTC-07:00)
Language:

Cosmos 1300 Rocket - Orbit

View from above orbital plane
View from above orbital plane
View from above satellite
View from above satellite

Ground track
Ground track

The orbit data is extracted from the following two-line orbital elements,

1 12786U 81082B   14213.67346660  .00000347  00000-0  38495-4 0  9405
2 12786 082.4864 237.5366 0019337 120.9000 018.3072 14.84138061778969
Epoch (UTC): 01 August 2014 16:09:47
Eccentricity: 0.0019337
inclination: 82.4864°
perigee height: 603 km
apogee height: 630 km
right ascension of ascending node: 237.5366°
argument of perigee: 120.9000°
revolutions per day: 14.84138061
mean anomaly at epoch: 18.3072°
orbit number at epoch: 77896

The dashed part of the orbit path shows where the satellite is in the earth's shadow,  

DLR